Time,TemperatureF,DewpointF,PressureIn,WindDirection,WindDirectionDegrees,WindSpeedMPH,WindSpeedGustMPH,Humidity,HourlyPrecipIn,Conditions,Clouds,dailyrainin,SolarRadiationWatts/m^2,SoftwareType,DateUTC
2013-08-31 00:06:00,65.8,63.0,29.87,East,100,0.0,1.0,91,0.00,,,0.00,0,weatherlink.com 1.10,2013-08-31 05:06:00,
2013-08-31 00:21:00,65.1,63.0,29.87,East,100,0.0,1.0,93,0.00,,,0.00,0,weatherlink.com 1.10,2013-08-31 05:21:00,
2013-08-31 00:36:00,64.9,63.0,29.87,East,100,0.0,0.0,92,0.00,,,0.00,0,weatherlink.com 1.10,2013-08-31 05:36:00,
2013-08-31 00:51:00,64.3,62.0,29.87,East,100,0.0,0.0,92,0.00,,,0.00,0,weatherlink.com 1.10,2013-08-31 05:51:00,
2013-08-31 01:06:00,63.3,61.0,29.87,East,100,0.0,0.0,91,0.00,,,0.00,0,weatherlink.com 1.10,2013-08-31 06:06:00,
2013-08-31 01:21:00,63.1,61.0,29.86,East,100,0.0,0.0,93,0.00,,,0.00,0,weatherlink.com 1.10,2013-08-31 06:21:00,
2013-08-31 01:36:00,62.9,61.0,29.86,East,100,0.0,0.0,94,0.00,,,0.00,0,weatherlink.com 1.10,2013-08-31 06:36:00,
2013-08-31 01:51:00,62.8,61.0,29.86,East,100,0.0,1.0,95,0.00,,,0.00,0,weatherlink.com 1.10,2013-08-31 06:51:00,
2013-08-31 02:06:00,62.4,61.0,29.85,East,100,0.0,1.0,95,0.00,,,0.00,0,weatherlink.com 1.10,2013-08-31 07:06:00,
2013-08-31 02:21:00,62.3,61.0,29.85,East,100,0.0,1.0,95,0.00,,,0.00,0,weatherlink.com 1.10,2013-08-31 07:21:00,
2013-08-31 02:36:00,62.5,61.0,29.84,East,100,0.0,1.0,96,0.00,,,0.00,0,weatherlink.com 1.10,2013-08-31 07:36:00,
2013-08-31 02:51:00,62.7,61.0,29.85,East,100,0.0,1.0,95,0.00,,,0.00,0,weatherlink.com 1.10,2013-08-31 07:51:00,
2013-08-31 03:06:00,61.5,60.0,29.86,East,100,0.0,0.0,93,0.00,,,0.00,0,weatherlink.com 1.10,2013-08-31 08:06:00,
2013-08-31 03:21:00,61.2,60.0,29.86,East,100,0.0,0.0,94,0.00,,,0.00,0,weatherlink.com 1.10,2013-08-31 08:21:00,
2013-08-31 03:36:00,60.8,59.0,29.87,East,100,0.0,0.0,95,0.00,,,0.00,0,weatherlink.com 1.10,2013-08-31 08:36:00,
2013-08-31 03:51:00,60.5,59.0,29.87,East,100,0.0,0.0,95,0.00,,,0.00,0,weatherlink.com 1.10,2013-08-31 08:51:00,
2013-08-31 04:06:00,60.3,59.0,29.87,East,100,0.0,0.0,95,0.00,,,0.00,0,weatherlink.com 1.10,2013-08-31 09:06:00,
2013-08-31 04:21:00,60.3,59.0,29.87,East,100,0.0,0.0,96,0.00,,,0.00,0,weatherlink.com 1.10,2013-08-31 09:21:00,
2013-08-31 04:36:00,59.8,58.0,29.88,East,100,0.0,0.0,95,0.00,,,0.00,0,weatherlink.com 1.10,2013-08-31 09:36:00,
2013-08-31 04:51:00,59.1,57.0,29.86,East,100,0.0,0.0,94,0.00,,,0.00,0,weatherlink.com 1.10,2013-08-31 09:51:00,
2013-08-31 05:06:00,58.9,58.0,29.86,East,100,0.0,0.0,96,0.00,,,0.00,0,weatherlink.com 1.10,2013-08-31 10:06:00,
2013-08-31 05:21:00,59.0,58.0,29.85,East,100,0.0,0.0,96,0.00,,,0.00,0,weatherlink.com 1.10,2013-08-31 10:21:00,
2013-08-31 05:36:00,58.7,58.0,29.84,East,100,0.0,0.0,96,0.00,,,0.00,0,weatherlink.com 1.10,2013-08-31 10:36:00,
2013-08-31 05:51:00,59.3,59.0,29.85,East,100,0.0,0.0,97,0.00,,,0.00,0,weatherlink.com 1.10,2013-08-31 10:51:00,
2013-08-31 06:06:00,59.3,59.0,29.85,East,100,0.0,0.0,97,0.00,,,0.00,0,weatherlink.com 1.10,2013-08-31 11:06:00,
2013-08-31 06:21:00,58.8,58.0,29.85,East,100,0.0,0.0,97,0.00,,,0.00,0,weatherlink.com 1.10,2013-08-31 11:21:00,
2013-08-31 06:36:00,59.3,59.0,29.85,East,100,0.0,1.0,97,0.00,,,0.00,11,weatherlink.com 1.10,2013-08-31 11:36:00,
2013-08-31 06:51:00,60.0,60.0,29.85,East,100,0.0,0.0,98,0.00,,,0.00,16,weatherlink.com 1.10,2013-08-31 11:51:00,
2013-08-31 07:06:00,60.9,60.0,29.86,East,100,0.0,0.0,98,0.00,,,0.00,47,weatherlink.com 1.10,2013-08-31 12:06:00,
2013-08-31 07:22:00,62.8,62.0,29.86,East,80,2.0,2.0,98,0.00,,,0.00,83,weatherlink.com 1.10,2013-08-31 12:22:00,
2013-08-31 07:37:00,64.2,64.0,29.86,East,90,0.0,3.0,98,0.00,,,0.00,123,weatherlink.com 1.10,2013-08-31 12:37:00,
2013-08-31 07:52:00,65.7,64.0,29.87,East,90,0.0,2.0,95,0.00,,,0.00,163,weatherlink.com 1.10,2013-08-31 12:52:00,
2013-08-31 08:07:00,67.2,65.0,29.87,East,86,0.0,2.0,91,0.00,,,0.00,113,weatherlink.com 1.10,2013-08-31 13:07:00,
2013-08-31 08:22:00,67.8,65.0,29.88,NE,56,0.0,2.0,89,0.00,,,0.00,149,weatherlink.com 1.10,2013-08-31 13:22:00,
2013-08-31 08:37:00,68.0,64.0,29.89,East,90,1.0,2.0,88,0.00,,,0.00,148,weatherlink.com 1.10,2013-08-31 13:37:00,
2013-08-31 08:52:00,68.3,65.0,29.88,East,84,0.0,1.0,89,0.00,,,0.00,267,weatherlink.com 1.10,2013-08-31 13:52:00,
2013-08-31 09:07:00,69.0,65.0,29.87,East,86,1.0,3.0,87,0.00,,,0.00,174,weatherlink.com 1.10,2013-08-31 14:07:00,
2013-08-31 09:22:00,68.6,65.0,29.88,NE,54,0.0,1.0,89,0.00,,,0.00,320,weatherlink.com 1.10,2013-08-31 14:22:00,
2013-08-31 09:37:00,68.6,65.0,29.88,East,86,3.0,3.0,89,0.00,,,0.00,221,weatherlink.com 1.10,2013-08-31 14:37:00,
2013-08-31 09:51:00,68.5,66.0,29.87,ENE,75,1.0,6.0,90,0.00,,,0.00,455,weatherlink.com 1.10,2013-08-31 14:51:00,
2013-08-31 10:06:00,68.7,65.0,29.87,NE,38,2.0,4.0,88,0.00,,,0.00,281,weatherlink.com 1.10,2013-08-31 15:06:00,
2013-08-31 10:21:00,67.9,65.0,29.87,East,84,2.0,5.0,90,0.00,,,0.00,346,weatherlink.com 1.10,2013-08-31 15:21:00,
2013-08-31 10:36:00,68.2,66.0,29.87,NE,45,2.0,3.0,91,0.00,,,0.00,278,weatherlink.com 1.10,2013-08-31 15:36:00,
2013-08-31 10:51:00,68.5,66.0,29.88,ESE,106,4.0,5.0,90,0.00,,,0.00,250,weatherlink.com 1.10,2013-08-31 15:51:00,
2013-08-31 11:06:00,68.6,65.0,29.88,ENE,78,1.0,5.0,89,0.00,,,0.00,257,weatherlink.com 1.10,2013-08-31 16:06:00,
2013-08-31 11:21:00,69.4,66.0,29.88,ENE,69,2.0,4.0,89,0.00,,,0.00,367,weatherlink.com 1.10,2013-08-31 16:21:00,
2013-08-31 11:37:00,70.4,66.0,29.87,ENE,70,2.0,5.0,87,0.00,,,0.00,432,weatherlink.com 1.10,2013-08-31 16:37:00,
2013-08-31 11:52:00,70.8,67.0,29.87,East,79,2.0,7.0,87,0.00,,,0.00,322,weatherlink.com 1.10,2013-08-31 16:52:00,
2013-08-31 12:07:00,72.0,67.0,29.87,ENE,78,1.0,5.0,84,0.00,,,0.00,916,weatherlink.com 1.10,2013-08-31 17:07:00,
2013-08-31 12:22:00,73.2,67.0,29.87,ENE,66,1.0,4.0,81,0.00,,,0.00,383,weatherlink.com 1.10,2013-08-31 17:22:00,
2013-08-31 12:37:00,72.9,66.0,29.86,NE,36,1.0,3.0,80,0.00,,,0.00,427,weatherlink.com 1.10,2013-08-31 17:37:00,
2013-08-31 12:52:00,73.1,67.0,29.86,ENE,69,0.0,8.0,82,0.00,,,0.00,805,weatherlink.com 1.10,2013-08-31 17:52:00,
2013-08-31 13:07:00,74.6,67.0,29.86,ESE,103,1.0,7.0,76,0.00,,,0.00,232,weatherlink.com 1.10,2013-08-31 18:07:00,
2013-08-31 13:22:00,74.2,67.0,29.86,ENE,67,3.0,6.0,78,0.00,,,0.00,257,weatherlink.com 1.10,2013-08-31 18:22:00,
2013-08-31 13:37:00,74.6,66.0,29.86,ESE,107,2.0,3.0,75,0.00,,,0.00,947,weatherlink.com 1.10,2013-08-31 18:37:00,
2013-08-31 13:52:00,76.5,67.0,29.86,ENE,59,0.0,4.0,72,0.00,,,0.00,352,weatherlink.com 1.10,2013-08-31 18:52:00,
2013-08-31 14:07:00,75.8,67.0,29.86,ENE,69,1.0,4.0,73,0.00,,,0.00,251,weatherlink.com 1.10,2013-08-31 19:07:00,
2013-08-31 14:22:00,77.5,67.0,29.85,NNW,348,0.0,8.0,71,0.00,,,0.00,914,weatherlink.com 1.10,2013-08-31 19:22:00,
2013-08-31 14:37:00,78.5,68.0,29.84,ENE,65,2.0,5.0,70,0.00,,,0.00,343,weatherlink.com 1.10,2013-08-31 19:37:00,
2013-08-31 14:52:00,76.6,66.0,29.84,ESE,123,1.0,6.0,70,0.00,,,0.00,207,weatherlink.com 1.10,2013-08-31 19:52:00,
2013-08-31 15:07:00,78.2,67.0,29.84,East,96,5.0,6.0,69,0.00,,,0.00,297,weatherlink.com 1.10,2013-08-31 20:07:00,
2013-08-31 15:22:00,77.0,67.0,29.83,ENE,73,3.0,3.0,70,0.00,,,0.00,605,weatherlink.com 1.10,2013-08-31 20:22:00,
2013-08-31 15:37:00,77.5,67.0,29.83,NE,56,1.0,7.0,70,0.00,,,0.00,684,weatherlink.com 1.10,2013-08-31 20:37:00,
2013-08-31 15:52:00,78.2,67.0,29.83,ENE,72,0.0,3.0,68,0.00,,,0.00,606,weatherlink.com 1.10,2013-08-31 20:52:00,
2013-08-31 16:07:00,78.1,66.0,29.83,East,92,2.0,6.0,67,0.00,,,0.00,587,weatherlink.com 1.10,2013-08-31 21:07:00,
2013-08-31 16:22:00,78.5,67.0,29.82,East,101,0.0,6.0,67,0.00,,,0.00,531,weatherlink.com 1.10,2013-08-31 21:22:00,
2013-08-31 16:37:00,78.3,66.0,29.82,East,96,1.0,6.0,67,0.00,,,0.00,487,weatherlink.com 1.10,2013-08-31 21:37:00,
2013-08-31 16:52:00,78.3,67.0,29.82,East,90,1.0,3.0,68,0.00,,,0.00,79,weatherlink.com 1.10,2013-08-31 21:52:00,
2013-08-31 17:22:00,78.8,67.0,29.81,East,96,0.0,7.0,67,0.00,,,0.00,355,weatherlink.com 1.10,2013-08-31 22:22:00,
2013-08-31 17:37:00,79.0,67.0,29.81,East,86,3.0,5.0,67,0.00,,,0.00,304,weatherlink.com 1.10,2013-08-31 22:37:00,
2013-08-31 17:52:00,79.0,68.0,29.80,East,89,0.0,2.0,69,0.00,,,0.00,264,weatherlink.com 1.10,2013-08-31 22:52:00,
2013-08-31 18:07:00,79.3,68.0,29.80,East,86,0.0,3.0,68,0.00,,,0.00,211,weatherlink.com 1.10,2013-08-31 23:07:00,
2013-08-31 18:23:00,79.0,67.0,29.80,East,86,0.0,1.0,67,0.00,,,0.00,149,weatherlink.com 1.10,2013-08-31 23:23:00,
2013-08-31 18:38:00,78.9,67.0,29.80,ESE,103,0.0,0.0,68,0.00,,,0.00,98,weatherlink.com 1.10,2013-08-31 23:38:00,
2013-08-31 18:53:00,79.2,68.0,29.80,ESE,103,0.0,0.0,68,0.00,,,0.00,54,weatherlink.com 1.10,2013-08-31 23:53:00,
2013-08-31 19:08:00,78.2,68.0,29.80,ESE,103,0.0,0.0,71,0.00,,,0.00,26,weatherlink.com 1.10,2013-09-01 00:08:00,
2013-08-31 19:23:00,77.2,68.0,29.79,ESE,103,0.0,0.0,72,0.00,,,0.00,5,weatherlink.com 1.10,2013-09-01 00:23:00,
2013-08-31 19:38:00,76.0,67.0,29.79,ESE,103,0.0,0.0,74,0.00,,,0.00,0,weatherlink.com 1.10,2013-09-01 00:38:00,
2013-08-31 19:53:00,74.1,66.0,29.80,ESE,103,0.0,0.0,77,0.00,,,0.00,0,weatherlink.com 1.10,2013-09-01 00:53:00,
2013-08-31 20:08:00,72.4,66.0,29.82,ESE,103,0.0,0.0,79,0.00,,,0.00,0,weatherlink.com 1.10,2013-09-01 01:08:00,
2013-08-31 20:23:00,70.7,65.0,29.84,ESE,103,0.0,0.0,81,0.00,,,0.00,0,weatherlink.com 1.10,2013-09-01 01:23:00,
2013-08-31 20:38:00,69.4,65.0,29.83,ESE,103,0.0,0.0,85,0.00,,,0.00,0,weatherlink.com 1.10,2013-09-01 01:38:00,
2013-08-31 20:53:00,68.2,64.0,29.84,ESE,103,0.0,0.0,85,0.00,,,0.00,0,weatherlink.com 1.10,2013-09-01 01:53:00,
2013-08-31 21:08:00,66.9,63.0,29.85,ESE,103,0.0,0.0,87,0.00,,,0.00,0,weatherlink.com 1.10,2013-09-01 02:08:00,
2013-08-31 21:23:00,65.8,62.0,29.86,ESE,103,0.0,0.0,88,0.00,,,0.00,0,weatherlink.com 1.10,2013-09-01 02:23:00,
2013-08-31 21:38:00,64.7,62.0,29.87,ESE,103,0.0,0.0,90,0.00,,,0.00,0,weatherlink.com 1.10,2013-09-01 02:38:00,
2013-08-31 21:53:00,63.9,62.0,29.87,ESE,103,0.0,0.0,92,0.00,,,0.00,0,weatherlink.com 1.10,2013-09-01 02:53:00,
2013-08-31 22:08:00,63.7,62.0,29.86,ESE,103,0.0,0.0,93,0.00,,,0.00,0,weatherlink.com 1.10,2013-09-01 03:08:00,
2013-08-31 22:23:00,63.4,61.0,29.85,ESE,103,0.0,0.0,93,0.00,,,0.00,0,weatherlink.com 1.10,2013-09-01 03:23:00,
2013-08-31 22:38:00,63.1,61.0,29.85,ESE,103,0.0,0.0,94,0.00,,,0.00,0,weatherlink.com 1.10,2013-09-01 03:38:00,
2013-08-31 22:53:00,62.6,61.0,29.84,ESE,103,0.0,0.0,93,0.00,,,0.00,0,weatherlink.com 1.10,2013-09-01 03:53:00,
2013-08-31 23:08:00,61.5,60.0,29.83,ESE,103,0.0,0.0,93,0.00,,,0.00,0,weatherlink.com 1.10,2013-09-01 04:08:00,
2013-08-31 23:23:00,61.6,61.0,29.82,ESE,103,0.0,1.0,96,0.00,,,0.00,0,weatherlink.com 1.10,2013-09-01 04:23:00,
2013-08-31 23:38:00,62.1,61.0,29.82,ESE,103,0.0,0.0,96,0.00,,,0.00,0,weatherlink.com 1.10,2013-09-01 04:38:00,
2013-08-31 23:53:00,61.5,60.0,29.82,ESE,103,0.0,0.0,94,0.00,,,0.00,0,weatherlink.com 1.10,2013-09-01 04:53:00,